• In India
  • List of Countries
  • For 7 days
  • Water Temperature
  • Satellite Maps
  • Weather Map
  • Weather Widgets
  • user-avatar
    Login

    Hourly Weather El Tablon

    Today, 11 December, Monday

    Time Temperature Precipitation Wind Pressure Humidity
    00:00 +19°C° 0.4 mm 1 mps 641 mmHg 89%
    01:00 +19°C° 0 mm 1 mps 641 mmHg 88%
    02:00 +19°C° 0.5 mm 1 mps 641 mmHg 87%
    03:00 +19°C° 0.5 mm 1 mps 641 mmHg 87%
    04:00 +19°C° 0.5 mm 1 mps 641 mmHg 86%
    05:00 +19°C° 0.2 mm 1 mps 641 mmHg 84%
    06:00 +20°C° 0.2 mm 1 mps 641 mmHg 83%
    07:00 +20°C° 0.2 mm 1 mps 642 mmHg 81%
    08:00 +22°C° 0.1 mm 1 mps 642 mmHg 74%
    09:00 +24°C° 0.1 mm 1 mps 643 mmHg 66%
    10:00 +26°C° 0.1 mm 1 mps 644 mmHg 59%
    11:00 +26°C° 0.4 mm 1 mps 643 mmHg 63%
    12:00 +26°C° 0.4 mm 2 mps 642 mmHg 66%
    13:00 +26°C° 0.4 mm 2 mps 641 mmHg 70%
    14:00 +25°C° 0.7 mm 2 mps 641 mmHg 72%
    15:00 +24°C° 0.7 mm 2 mps 640 mmHg 75%
    16:00 +24°C° 0.7 mm 2 mps 640 mmHg 78%
    17:00 +22°C° 0.7 mm 1 mps 640 mmHg 81%
    18:00 +21°C° 0.7 mm 1 mps 640 mmHg 85%
    19:00 +20°C° 0.7 mm 1 mps 640 mmHg 89%
    20:00 +20°C° 0.3 mm 1 mps 641 mmHg 88%
    21:00 +20°C° 0.3 mm 1 mps 641 mmHg 88%
    22:00 +19°C° 0.3 mm 1 mps 641 mmHg 87%
    23:00 +19°C° 0.1 mm 1 mps 641 mmHg 87%

    Tomorrow, 12 December, Tuesday

    Time Temperature Precipitation Wind Pressure Humidity
    00:00 +19°C° 0.1 mm 1 mps 641 mmHg 86%
    01:00 +19°C° 0.1 mm 1 mps 641 mmHg 86%
    02:00 +19°C° 0 mm 1 mps 641 mmHg 85%
    03:00 +19°C° 0 mm 1 mps 641 mmHg 85%
    04:00 +18°C° 0 mm 1 mps 640 mmHg 84%
    05:00 +19°C° 0 mm 1 mps 641 mmHg 83%
    06:00 +19°C° 0 mm 1 mps 641 mmHg 81%
    07:00 +20°C° 0 mm 1 mps 641 mmHg 79%
    08:00 +22°C° 0 mm 1 mps 642 mmHg 71%
    09:00 +24°C° 0 mm 1 mps 643 mmHg 63%
    10:00 +26°C° 0 mm 1 mps 644 mmHg 55%
    11:00 +26°C° 0.2 mm 2 mps 643 mmHg 57%
    12:00 +26°C° 0.2 mm 2 mps 643 mmHg 59%
    13:00 +26°C° 0.2 mm 2 mps 642 mmHg 60%
    14:00 +26°C° 0.5 mm 2 mps 642 mmHg 64%
    15:00 +25°C° 0.5 mm 2 mps 641 mmHg 67%
    16:00 +24°C° 0.5 mm 2 mps 640 mmHg 71%
    17:00 +23°C° 0.4 mm 1 mps 640 mmHg 77%
    18:00 +21°C° 0.4 mm 1 mps 640 mmHg 83%
    19:00 +20°C° 0.4 mm 1 mps 640 mmHg 89%
    20:00 +19°C° 0.2 mm 1 mps 641 mmHg 89%
    21:00 +19°C° 0.2 mm 1 mps 641 mmHg 89%
    22:00 +18°C° 0.2 mm 1 mps 642 mmHg 89%
    23:00 +18°C° 0 mm 1 mps 641 mmHg 87%

    Day after tomorrow, 13 December, Wednesday

    Time Temperature Precipitation Wind Pressure Humidity
    00:00 +18°C° 0 mm 1 mps 641 mmHg 86%
    01:00 +18°C° 0 mm 1 mps 641 mmHg 85%
    02:00 +18°C° 0.1 mm 1 mps 641 mmHg 84%
    03:00 +18°C° 0.1 mm 1 mps 641 mmHg 84%
    04:00 +18°C° 0.1 mm 1 mps 640 mmHg 84%
    05:00 +18°C° 0 mm 1 mps 641 mmHg 82%
    06:00 +19°C° 0 mm 1 mps 642 mmHg 80%
    07:00 +19°C° 0 mm 1 mps 642 mmHg 78%
    08:00 +22°C° 0 mm 1 mps 643 mmHg 68%
    09:00 +24°C° 0 mm 1 mps 644 mmHg 58%
    10:00 +27°C° 0 mm 1 mps 645 mmHg 49%
    11:00 +27°C° 0.1 mm 1 mps 644 mmHg 49%
    12:00 +27°C° 0.1 mm 2 mps 643 mmHg 50%
    13:00 +28°C° 0.1 mm 2 mps 643 mmHg 50%
    14:00 +27°C° 0.3 mm 2 mps 642 mmHg 54%
    15:00 +26°C° 0.3 mm 2 mps 642 mmHg 58%
    16:00 +26°C° 0.3 mm 2 mps 641 mmHg 62%
    17:00 +23°C° 0.2 mm 1 mps 641 mmHg 71%
    18:00 +21°C° 0.2 mm 1 mps 640 mmHg 81%
    19:00 +17°C° 0.2 mm 0 mps 640 mmHg 90%
    20:00 +17°C° 0.1 mm 0 mps 641 mmHg 90%
    21:00 +19°C° 0.1 mm 1 mps 641 mmHg 89%
    22:00 +19°C° 0.1 mm 1 mps 642 mmHg 88%
    23:00 +19°C° 0 mm 1 mps 642 mmHg 88%

    14 December, Thursday

    Time Temperature Precipitation Wind Pressure Humidity
    00:00 +19°C° 0 mm 1 mps 641 mmHg 87%
    01:00 +19°C° 0 mm 1 mps 641 mmHg 87%
    02:00 +19°C° 0 mm 1 mps 641 mmHg 87%
    03:00 +19°C° 0 mm 1 mps 640 mmHg 87%
    04:00 +19°C° 0 mm 1 mps 640 mmHg 87%
    05:00 +19°C° 0 mm 1 mps 641 mmHg 86%
    06:00 +20°C° 0 mm 1 mps 641 mmHg 84%
    07:00 +20°C° 0 mm 1 mps 642 mmHg 82%
    08:00 +22°C° 0 mm 1 mps 642 mmHg 75%
    09:00 +24°C° 0 mm 1 mps 643 mmHg 69%
    10:00 +25°C° 0 mm 2 mps 643 mmHg 62%
    11:00 +26°C° 0 mm 2 mps 643 mmHg 61%
    12:00 +26°C° 0 mm 2 mps 642 mmHg 60%
    13:00 +27°C° 0 mm 2 mps 642 mmHg 59%
    14:00 +26°C° 0.3 mm 2 mps 641 mmHg 63%
    15:00 +25°C° 0.3 mm 2 mps 640 mmHg 68%
    16:00 +25°C° 0.3 mm 2 mps 640 mmHg 72%
    17:00 +23°C° 0.3 mm 1 mps 640 mmHg 80%
    18:00 +22°C° 0.3 mm 1 mps 640 mmHg 87%
    19:00 +20°C° 0.3 mm 1 mps 640 mmHg 94%
    20:00 +20°C° 0.2 mm 1 mps 641 mmHg 93%
    21:00 +20°C° 0.2 mm 1 mps 641 mmHg 92%
    22:00 +20°C° 0.2 mm 1 mps 642 mmHg 92%
    23:00 +19°C° 0.1 mm 1 mps 642 mmHg 90%

    15 December, Friday

    Time Temperature Precipitation Wind Pressure Humidity
    00:00 +19°C° 0.1 mm 1 mps 641 mmHg 87%
    01:00 +19°C° 0.1 mm 1 mps 641 mmHg 85%
    02:00 +19°C° 0 mm 1 mps 640 mmHg 85%
    03:00 +18°C° 0 mm 1 mps 640 mmHg 85%
    04:00 +18°C° 0 mm 1 mps 640 mmHg 85%
    05:00 +19°C° 0 mm 1 mps 640 mmHg 83%
    06:00 +19°C° 0 mm 1 mps 641 mmHg 81%
    07:00 +19°C° 0 mm 1 mps 641 mmHg 80%
    08:00 +22°C° 0 mm 1 mps 642 mmHg 68%
    09:00 +24°C° 0 mm 2 mps 643 mmHg 56%
    10:00 +27°C° 0 mm 2 mps 644 mmHg 45%
    11:00 +27°C° 0 mm 2 mps 644 mmHg 43%
    12:00 +28°C° 0 mm 2 mps 643 mmHg 42%
    13:00 +29°C° 0 mm 2 mps 643 mmHg 40%
    14:00 +28°C° 0.1 mm 2 mps 642 mmHg 45%
    15:00 +27°C° 0.1 mm 2 mps 641 mmHg 49%
    16:00 +26°C° 0.1 mm 2 mps 640 mmHg 54%
    17:00 +24°C° 0.1 mm 1 mps 640 mmHg 62%
    18:00 +22°C° 0.1 mm 1 mps 640 mmHg 70%
    19:00 +19°C° 0.1 mm 1 mps 640 mmHg 79%
    20:00 +19°C° 0.1 mm 1 mps 641 mmHg 77%
    21:00 +19°C° 0.1 mm 1 mps 641 mmHg 74%
    22:00 +19°C° 0.1 mm 1 mps 642 mmHg 72%
    23:00 +18°C° 0 mm 1 mps 641 mmHg 71%

    16 December, Saturday

    Time Temperature Precipitation Wind Pressure Humidity
    00:00 +18°C° 0 mm 1 mps 641 mmHg 69%
    01:00 +18°C° 0 mm 1 mps 641 mmHg 68%
    02:00 +18°C° 0 mm 1 mps 640 mmHg 68%
    03:00 +18°C° 0 mm 1 mps 640 mmHg 68%
    04:00 +18°C° 0 mm 1 mps 640 mmHg 69%
    05:00 +19°C° 0 mm 1 mps 641 mmHg 69%
    06:00 +19°C° 0 mm 1 mps 641 mmHg 69%
    07:00 +20°C° 0 mm 1 mps 642 mmHg 70%
    08:00 +22°C° 0 mm 1 mps 643 mmHg 63%
    09:00 +25°C° 0 mm 1 mps 643 mmHg 57%
    10:00 +27°C° 0 mm 2 mps 644 mmHg 51%
    11:00 +27°C° 0 mm 2 mps 643 mmHg 52%
    12:00 +27°C° 0 mm 2 mps 643 mmHg 53%
    13:00 +27°C° 0 mm 2 mps 642 mmHg 55%
    14:00 +27°C° 0.3 mm 2 mps 641 mmHg 58%
    15:00 +26°C° 0.3 mm 1 mps 641 mmHg 62%
    16:00 +25°C° 0.3 mm 1 mps 640 mmHg 65%
    17:00 +24°C° 0.2 mm 1 mps 640 mmHg 73%
    18:00 +22°C° 0.2 mm 1 mps 640 mmHg 80%
    19:00 +21°C° 0.2 mm 1 mps 640 mmHg 87%
    20:00 +20°C° 0.1 mm 1 mps 640 mmHg 87%
    21:00 +20°C° 0.1 mm 1 mps 640 mmHg 86%
    22:00 +20°C° 0.1 mm 1 mps 641 mmHg 85%
    23:00 +20°C° 0.1 mm 1 mps 641 mmHg 84%
    Show more